Location: Asheville, NC
(35.6000°N, 82.5500°W)
Time: 22:59:31

Oscar 11 - Pass Details

Date: 12 March 2018
Orbit: 613 x 626 km, 97.7° (Epoch: 18 March)

Event Time Altitude Azimuth Distance (km) Brightness Sun altitude
Exits shadow 21:25:43 24° 185° (S) 1,265 8.5 -23.1°
Maximum altitude 21:28:09 62° 259° (W) 691 7.4 -23.6°
Drops below altitude 10° 21:32:24 10° 341° (NNW) 1,974 10.0 -24.4°
Sets 21:34:37 0° 345° (NNW) 2,883 10.9 -24.9°
